This is the latest recevied weather packets stored in our database for station/object PU2XNA. If no packets are shown the sender has not sent any weather packets the latest 10 day(s).
| Time | Temp. | Humidity | Pressure | Rain* | Wind** | Luminosity | Snow |
|---|---|---|---|---|---|---|---|
| 1788153303 | 23.33° C | 38% | 1010.1 hPa | - | - | - | - |
| 1788152403 | 23.89° C | 38% | 1010.2 hPa | - | - | - | - |
| 1788151503 | 25° C | 38% | 1010.4 hPa | - | - | - | - |
| 1788150602 | 25° C | 38% | 1010.9 hPa | - | - | - | - |
| 1788149703 | 25° C | 38% | 1011.1 hPa | - | - | - | - |
| 1788148803 | 25° C | 38% | 1011.3 hPa | - | - | - | - |
| 1788147902 | 25° C | 38% | 1011.6 hPa | - | - | - | - |
| 1788147004 | 25° C | 38% | 1011.7 hPa | - | - | - | - |
| 1788146103 | 25.56° C | 38% | 1011.8 hPa | - | - | - | - |
| 1788145202 | 25.56° C | 38% | 1011.8 hPa | - | - | - | - |
| 1788144303 | 26.11° C | 38% | 1012 hPa | - | - | - | - |
| 1788143403 | 26.11° C | 38% | 1011.6 hPa | - | - | - | - |
| 1788142502 | 26.11° C | 38% | 1011.6 hPa | - | - | - | - |
| 1788141602 | 26.67° C | 38% | 1011.8 hPa | - | - | - | - |
| 1788140703 | 26.67° C | 38% | 1011.8 hPa | - | - | - | - |
| 1788139804 | 27.22° C | 38% | 1011.5 hPa | - | - | - | - |
| 1788138902 | 27.78° C | 38% | 1011.2 hPa | - | - | - | - |
| 1788138002 | 27.22° C | 38% | 1011.6 hPa | - | - | - | - |
| 1788137102 | 27.22° C | 38% | 1011.7 hPa | - | - | - | - |
| 1788136203 | 27.78° C | 38% | 1011.8 hPa | - | - | - | - |
| 1788135302 | 27.78° C | 38% | 1011.8 hPa | - | - | - | - |
| 1788134403 | 28.89° C | 38% | 1011.2 hPa | - | - | - | - |
| 1788133503 | 30° C | 38% | 1011.2 hPa | - | - | - | - |
| 1788132603 | 30° C | 38% | 1010.1 hPa | - | - | - | - |
| 1788131704 | 30° C | 38% | 1009.5 hPa | - | - | - | - |
* Rain since midnight (hover to see other rain measurements)
** Current wind speed in m/s (hover to see current wind gust speed)